Погода в Галичанах

Украина / Волынская область     50°26′41″N   24°54′13″E
темп.,
°C
ветер,
м/с
пор.,
м/с
влажн.,
%
обл.,
%
осадки,
мм/ч
давл.,
гПа
погр.,
м
8 мая, сб
сб800:00+7зсз51094100 0.0 1008351
03:00+6зсз51094100 0.3 1011531
06:00+4зсз81196100 0.4 1013791
09:00+3сз101694100 0.9 10161153
12:00+6зсз8118387 0.5 10171265
15:00+9зсз9116736 1.0 10181520
18:00+9зсз696465 0.4 10191482
21:00+5з33825 0.9 102128
9 мая, вс
вс900:00+3з33870 0.0 102241
03:00+2з33900 0.0 102350
06:00+2зюз229011 0.0 102525
09:00+8ююз227252 0.0 1025272
12:00+12ююз335591 0.0 10251404
15:00+14ююз344895 0.0 10242012
18:00+15ююз355114 0.0 10231738
21:00+10ююв477266 0.0 102498
10 мая, пн
пн1000:00+8ююв497519 0.0 1025157
03:00+7юв411765 0.0 1024194
06:00+6юв413765 0.0 1024245
09:00+11ююв612655 0.0 1024468
12:00+16ююв8105751 0.0 1023955
15:00+19ююв810545 0.0 10221286
18:00+18юв711645 0.0 10211061
21:00+13юв513785 0.0 1022311
11 мая, вт
вт1100:00+10юв615815 0.0 1022398
03:00+9юв614790 0.0 1022377
06:00+8юв615770 0.0 1022383
09:00+13юв714691 0.0 1022551
12:00+17юв811550 0.0 1021957
15:00+19юв810510 0.0 10201205
18:00+18юв710600 0.0 10191037
21:00+12вюв513732 0.0 1019285
12 мая, ср
ср1200:00+11юв514755 0.0 1019346
03:00+8вюв4128514 0.0 1018268
06:00+8вюв512923 0.0 1017253
09:00+13вюв610811 0.0 1016540
12:00+17в79661 0.0 10141298
15:00+18в79536 0.0 10121547
18:00+12в71175100 0.0 1013520
21:00+11в6137935 0.0 1012627